Flag for Germany Weather past 2 weeks in Deggendorf, Bavaria, Germany

Now
86 °F

Sunny.


Feels Like: 86 °F
Forecast: 60 / 90 °F
Wind: 1 mph from Northeast

Location: Straubing

Current Time: Aug 29, 2015 at 7:50:39 PM

Latest Report: Aug 29, 2015 at 7:00 PM


Visibility: 41 mi

Pressure: 30.06 "Hg

Humidity: 41%

Dew point: 59 °F

Location of DeggendorfLocation

Historic Weather in Deggendorf — Graph

°F

Deggendorf temperature yesterday

Maximum temperature yesterday: 87 °F (at 4:00 PM)
Minimum temperature yesterday: 58 °F (at 3:00 AM)
Average temperature yesterday: 72 °F

Past Weeks' High & Low Weather Summary

 TemperatureHumidityPressure
High88 °F (Aug 29, 6:00 PM)100% (Aug 18, 8:00 AM)30.28 "Hg (Aug 18, 8:00 AM)
Low48 °F (Aug 23, 7:00 AM)34% (Aug 26, 6:00 PM)29.65 "Hg (Aug 14, 8:00 PM)
Average66 °F73%29.99 "Hg
* Reported Aug 14 6:00 PM — Aug 29 6:00 PM, Deggendorf, Weather by CustomWeather, © 2015

Note: Actual official high and low records may vary slightly from our data, if they occured in-between our weather recording intervals... More about our weather records

Advertising

Deggendorf weather history for previous 24 hours

 ConditionsComfort  
Time TempWeatherWind HumidityBarometerVisibility
6:00 PM
Sat, Aug 29
88 °FSunny.1 mph38%30.08 "Hg37 mi
5:00 PM87 °FSunny.2 mph43%30.09 "Hg40 mi
4:00 PM87 °FSunny.2 mph40%30.11 "Hg34 mi
3:00 PM85 °FSunny.2 mph44%30.13 "Hg28 mi
2:00 PM84 °FSunny.3 mph48%30.15 "Hg25 mi
1:00 PM81 °FSunny.3 mph51%30.18 "Hg25 mi
12:00 PM80 °FSunny.3 mph59%30.19 "Hg34 mi
10:00 AM76 °FSunny.1 mph64%30.20 "Hg34 mi
9:00 AM71 °FSunny.2 mph76%30.20 "Hg25 mi
8:00 AM67 °FSunny.1 mph83%30.21 "Hg25 mi
7:00 AM64 °FSunny.2 mph88%30.20 "Hg22 mi
6:00 AM66 °FClear.3 mph84%30.19 "Hg31 mi
4:00 AM66 °FOvercast.2 mph84%30.18 "Hg28 mi
3:00 AM67 °FPassing clouds.2 mph81%30.16 "Hg34 mi
2:00 AM69 °FClear.2 mph78%30.16 "Hg37 mi
1:00 AM70 °FPassing clouds.2 mph74%30.15 "Hg37 mi
12:00 AM71 °FPassing clouds.2 mph75%30.15 "Hg28 mi
11:00 PM
Fri, Aug 28
71 °FClear.2 mph73%30.13 "Hg25 mi
10:00 PM73 °FClear.2 mph70%30.10 "Hg28 mi
9:00 PM76 °FPassing clouds.3 mph63%30.08 "Hg31 mi
8:00 PM78 °FPartly sunny.3 mph58%30.06 "Hg37 mi
7:00 PM83 °FOvercast.2 mph49%30.03 "Hg40 mi
Weather by CustomWeather, © 2015

See weather overviewHow to use our weather pages